Mountain View, CA

7:23 AM PST on December 10, 2016 (GMT -0800)
Moffett Federal Air Field

Weather History for KNUQ - October, 2014

Change the Weather History Date:

Wednesday, October 8, 2014

  Actual Average Record
Temperature  
Mean Temperature 69 °F 65 °F  
Max Temperature 82 °F 75 °F 88 °F (2016)
Min Temperature 56 °F 55 °F 42 °F (1975)
Degree Days  
Heating Degree Days 0    
Month to date heating degree days 0  
Since 1 July heating degree days 2  
Cooling Degree Days 4    
Month to date cooling degree days 54  
Year to date cooling degree days 620  
Growing Degree Days 18 (Base 50)    
Moisture  
Dew Point 58 °F    
Average Humidity 73    
Maximum Humidity 100    
Minimum Humidity 45    
Precipitation  
Precipitation 0.00 in 0.01 in 0.29 in (1973)
Month to date precipitation 0.00 0.08  
Year to date precipitation 5.60 9.92  
Since 1 July precipitation 0.41  
Sea Level Pressure  
Sea Level Pressure 29.91 in    
Wind  
Wind Speed 3 mph (NNW)    
Max Wind Speed 14 mph    
Max Gust Speed 17 mph    
Visibility 10 miles    
Events      
T = Trace of Precipitation, MM = Missing Value Source: NWS Daily Summary

Daily Weather History Graph

Daily Weather History Graph

Search for Another Location

Airport or City:

Trip Planner

Search our weather history database for the weather conditions in past years. The results will help you decide how hot, cold, wet, or windy it might be!

Date:

Astronomy

Oct. 08, 2014 Rise Set
Actual Time 7:09 AM PDT 6:40 PM PDT
Civil Twilight 6:43 AM PDT 7:06 PM PDT
Nautical Twilight 6:13 AM PDT 7:37 PM PDT
Astronomical Twilight 5:43 AM PDT 8:07 PM PDT
Moon 7:00 PM PDT (10/8) 7:22 AM PDT (10/8)
Length of Visible Light 12h 23m
Length of Day
11h 30m
Full, 100% of the Moon is Illuminated
Oct 8
Full
Oct 15
Last Quarter
Oct 23
New
Oct 30
First Quarter
Nov 6
Full

Hourly Weather History & Observations

Time (PDT) Temp. Dew Point Humidity Pressure Visibility Wind Dir Wind Speed Gust Speed Precip Events Conditions
12:56 AM 60.1 °F 57.9 °F 93% 29.92 in 10.0 mi Calm Calm - N/A   Clear
1:56 AM 60.1 °F 57.0 °F 90% 29.92 in 10.0 mi Calm Calm - N/A   Clear
2:20 AM 60.8 °F 57.2 °F 88% 29.91 in 10.0 mi Calm Calm - N/A   Partly Cloudy
2:56 AM 59.0 °F 57.9 °F 96% 29.92 in 10.0 mi Calm Calm - N/A   Clear
3:56 AM 57.9 °F 57.9 °F 100% 29.91 in 10.0 mi Calm Calm - N/A   Clear
4:56 AM 57.9 °F 55.9 °F 93% 29.91 in 10.0 mi SSW 3.5 mph - N/A   Clear
5:56 AM 57.0 °F 55.0 °F 93% 29.91 in 10.0 mi Calm Calm - N/A   Clear
6:56 AM 57.9 °F 55.9 °F 93% 29.92 in 10.0 mi Calm Calm - N/A   Clear
7:56 AM 57.9 °F 57.9 °F 100% 29.92 in 10.0 mi Calm Calm - N/A   Clear
8:56 AM 63.0 °F 61.0 °F 93% 29.94 in 8.0 mi Calm Calm - N/A   Clear
9:56 AM 66.0 °F 63.0 °F 90% 29.94 in 8.0 mi Calm Calm - N/A   Clear
10:56 AM 69.1 °F 59.0 °F 70% 29.94 in 10.0 mi Calm Calm - N/A   Clear
11:56 AM 73.9 °F 57.9 °F 57% 29.93 in 10.0 mi Calm Calm - N/A   Clear
12:56 PM 77.0 °F 59.0 °F 54% 29.91 in 9.0 mi North 6.9 mph - N/A   Clear
1:56 PM 78.1 °F 59.0 °F 52% 29.89 in 10.0 mi North 8.1 mph - N/A   Clear
2:56 PM 79.0 °F 59.0 °F 50% 29.88 in 10.0 mi North 10.4 mph - N/A   Clear
3:56 PM 79.0 °F 55.9 °F 45% 29.87 in 10.0 mi North 6.9 mph - N/A   Clear
4:56 PM 75.9 °F 55.0 °F 48% 29.86 in 10.0 mi NNW 8.1 mph - N/A   Clear
5:56 PM 73.0 °F 55.0 °F 53% 29.86 in 10.0 mi NNW 8.1 mph - N/A   Clear
6:56 PM 69.1 °F 54.0 °F 58% 29.88 in 10.0 mi NW 10.4 mph - N/A   Clear
7:56 PM 66.0 °F 61.0 °F 84% 29.90 in 10.0 mi North 8.1 mph - N/A   Clear
8:56 PM 64.0 °F 60.1 °F 87% 29.91 in 10.0 mi Calm Calm - N/A   Clear
9:56 PM 64.9 °F 59.0 °F 81% 29.93 in 10.0 mi Calm Calm - N/A   Clear
10:56 PM 63.0 °F 57.9 °F 84% 29.93 in 10.0 mi Calm Calm - N/A   Clear
11:56 PM 63.0 °F 61.0 °F 93% 29.93 in 10.0 mi Calm Calm - N/A   Clear